DUBAISAT-2

Last updated on Wed Sep 17 2025 00:02:30 GMT+0000 (Coordinated Universal Time)

1 39419U 13066D 25259.57620993 .00004206 00000+0 28352-3 0 9990 2 39419 97.4409 252.7637 0009735 248.2892 111.7300 15.07147146645130
UTC large
Height (km)
Speed (km/s)
/
Latitude / Longitude
Inclination (degrees)
Orbital Period (minutes)
Azimuth
Elevation
Range (km)
Doppler Factor

Next 0 passes for location: London (51.5072 / 0.1276)

Sorry there are no passes over London.